Погода Троицко-Печерск

Хотите узнать прогноз погоды Троицко-Печерск? Тогда Вам сюда: Погода Троицко-Печерск

Поиск расширенной информации на нашем сайте:

Полезная информация:

Новости сайта



02.01.2020
Опубликован Долгосрочный прогноз погоды по городам России и ближнего зарубежья на январь 2020 года.
Карты: Прогноз на январь и февраль 2020 года, Сравнение прогнозируемой аномалии приземной температуры воздуха на январь 2020 года по разным моделям.




Погода Троицко-Печерск - сегодня

Время (UTC), дата Ветер
(°,м/с) 
Видим.   Явления Облачность Т
(°С)
Тd
(°С)
f(%) Тe
(°С)
Pmin
(гПа)
dP
(гПа)
Po
(мм)
O2
(г/м3)
Тmin Tmax R s Состояние
почвы
03 05.03.21 тихо ()   20000 м    9/0 средняя, верхняя 
[Ac trans|Cs]
-23.3 -26.1 78 -23  993.7  1.2  732  324  -23.5      равномерный
сухой снег
100% 
06 05.03.21 100 (В) 20000 м    4/0 верхняя 
[Cs]
-17.5 -20.1 80 -18  994.3  732  317  -24.1         
09 05.03.21 090 (В) 20000 м    5/0 верхняя 
[Cs]
-11.2 -16.5 65 -11  994.9  1.1  733  309           
12 05.03.21 070 (В) 10 км  слаб. снег  8/0 средняя, верхняя 
[As op|Cs]
-10.2 -13.9 74 -10  996  1.1  734  308           
15 05.03.21 310 (СЗ) 20000 м  {снег}  8/0 средняя 
[Ac As]
-14.7 -16.7 85 -15  998.3  735  315    -9.1  0.2     
18 05.03.21 330 (СЗ) 10 км  слаб. снег  9/0 средняя, верхняя 
[As op|Ci fib]
-14.9 -17.2 83 -15  999.6  1.2  736  315           
21 05.03.21 320 (СЗ) 20000 м  {снег}  4/0 верхняя 
[Ci fib]
-18.2 -20.8 80 -18  1000.8  737  320           
00 06.03.21 290 (З) 20000 м  {снег}  3/0 верхняя 
[Ci fib]
-21 -23.7 79 -24  1002.2  1.1  738  324           
03 06.03.21 290 (З) 20000 м    8/0 средняя, верхняя 
[Ac trans|Ci fib]
-22.8 -25.3 80 -26  1003.4  1.1  739  326  -23.8    0.2  66  равномерный
сухой снег
100% 
06 06.03.21 340 (С) 20000 м    5/0 верхняя 
[Ci fib]
-19.5 -23.4 71 -22  1004.4  1.2  740  323           
09 06.03.21 290 (З) 20000 м    8/0 средняя 
[Ac As]
-16.2 -21.2 65 -19  1004.6  0.4  740  319           
12 06.03.21 280 (З) 20000 м  {ливн. осадки}  8/0 кучево-дожд., средняя 
[Cb cap|Ac As]
-15.1 -21 61 -17  1005.4  0.8  741  317           
15 06.03.21 260 (З) 20000 м  {ливн. осадки}  9/0 кучево-дожд., средняя 
[Cb cap|Ac As]
-20.9 -23.4 80 -21  1006.8  0.9  741  325    -14.9       
18 06.03.21 270 (З) 20000 м    8/0 средняя 
[Ac As]
-25.6 -28.6 76 -26  1007.4  0.3  742  332           
21 06.03.21 270 (З) 20000 м    3/0 средняя 
[Ac trans]
-26.1 -29 77 -29  1007.3  0.1  741  332           
00 07.03.21 тихо ()   20000 м    3/0 средняя 
[Ac trans]
-28.6 -31.6 75 -29  1007.5  0.1  741  336           
03 07.03.21 тихо ()   20000 м    3/0 средняя 
[Ac trans]
-30.7 -33.6 76 -31  1007.9  0.2  742  339  -31.4      63  равномерный
сухой снег
100% 
06 07.03.21 тихо ()   20000 м    3/0 средняя 
[Ac trans]
-26.3 -29.4 75 -26  1007.8  0.4  742  333  -31.9         
09 07.03.21 120 (ЮВ) 20000 м    3/0 верхняя 
[Ci fib]
-18.8 -23.7 65 -21  1007  -0.3  742  323           
12 07.03.21 150 (ЮВ) 20000 м    3/0 верхняя 
[Cs]
-15.3 -20.4 65 -15  1006.3  -0.4  741  318           
15 07.03.21 190 (Ю) 20000 м    4/0 верхняя 
[Cs]
-21.8 -24.2 81 -22  1006.5  -0.3  741  326    -14.9       
18 07.03.21 тихо ()   20000 м    3/0 верхняя 
[Cs]
-26.6 -29.7 75 -27  1006.8  -0.1  741  333           
21 07.03.21 тихо ()   20000 м    5/0 верхняя 
[Cs]
-29.4 -32.4 75 -29  1006.4  -0.6  741  336           
00 08.03.21 тихо ()   20000 м    4/0 верхняя 
[Cs]
-31.6 -34.5 76 -32  1006.1  -0.5  740  339           
03 08.03.21 030 (СВ) 20000 м    8/0 средняя, верхняя 
[Ac As|Cs]
-32.8 -36.7 68 -34  1006.1  -0.1  740  341  -32.9      64  равномерный
сухой снег
100% 
Время (UTC), дата Ветер
(°,м/с) 
Видим.   Явления Облачность Т
(°С)
Тd
(°С)
f(%) Тe
(°С)
Pmin
(гПа)
dP
(гПа)
Po
(мм)
O2
(г/м3)
Тmin Tmax R s Состояние
почвы

Для получения пояснительной информации подведите курсор к названию столбца.

ПОГОДА Троицко-Печерск - архив

Всё, что Вы хотите узнать о погоде Троицко-Печерск - удобно и подробно!

Выберите нужную дату (начиная с 1 января 2019* года) и нажмите кнопку "Найти".
Будут отображены архивные сводки погоды по пункту Троицко-Печерск, начиная с указанной даты.


Отображать данные в формате CSV (для использования в таблицах Excel)


Внимание! Наш архив погоды предназначен исключительно для личного некоммерческого использования в познавательных целях. Если Вам необходимы официальные справки о состоянии погоды (для производственных, юридических, коммерческих и т.п. целей), обращайтесь в органы Росгидромета.

*Примечание: данная дата относится к архиву по метеостанциям СССР (Россия, СНГ, Балтия).
Архив по метеостанциям Зарубежной Европы и Азии (кроме Китая) хранится 10 дней, по другим регионам земного шара (Китай, Африка, Америка, Австралия, Океания) - 1 день.

Троицко-Печерск - район местоположения метеостанции


Название, широта, долгота, высота метеостанции:
Троицко-Печерск 62.7°ш. 56.2°д. 139 м над ур. моря [Российская Федерация]

Дополнительная информация

В oтличие oт бoльшинства пoгoдных сайтoв мы публикуем пoдрoбную метеoинфoрмацию в детальнoм прoфессиoнальнoм фoрмате.

Характеристики температуры и влажнoсти вoздуха измеряются на высoте 2 м в тени вдали oт зданий и деревьев.
Скoрoсть ветра измеряется на высoте 10 м (на урoвне рoста челoвека скoрoсть ветра ниже в 1.5-2 раза). Если метеoстанция нахoдится в гoрoде или в лесу, тo скoрoсть ветра занижена на 2-4 м/с пo сравнению с oткрытым местoм. Скoрoсть ветра над акватoриями крупных рек и oзёр, а также на вершинах хoлмoв на 2-5 м/с выше, чем в oбычных услoвиях.
Атмoсфернoе давление в разных тoчках местнoсти мoжет значительнo oтличаться oт давления на метеoстанции, в зависимoсти oт услoвий рельефа (при пoдъёме на 10 м давление пoнижается примернo на 1 мм рт.ст.).